• In Deutschland
  • Länderverzeichnis
  • Für 7 Tage
  • Wassertemperatur
  • Satellitenkarten
  • Wetterkarte
  • Widgets
  • user-avatar
    Anmelden

    Stündliche Wetter Kalat

    Heute, 16 Oktober, Dienstag

    Zeit Temperatur Niederschläge Wind Luftdruck Luftfeuchtigkeit
    00:00 -5°C° 0.3 mm 2 m/S 474 mmHg 85%
    01:00 -6°C° 0.3 mm 3 m/S 474 mmHg 86%
    02:00 -6°C° 0.3 mm 3 m/S 474 mmHg 87%
    03:00 -7°C° 0.4 mm 3 m/S 474 mmHg 87%
    04:00 -7°C° 0.4 mm 3 m/S 474 mmHg 87%
    05:00 -7°C° 0.4 mm 3 m/S 474 mmHg 88%
    06:00 -7°C° 0.3 mm 3 m/S 474 mmHg 86%
    07:00 -7°C° 0.3 mm 3 m/S 474 mmHg 85%
    08:00 -7°C° 0.3 mm 3 m/S 474 mmHg 83%
    09:00 -6°C° 0.4 mm 3 m/S 474 mmHg 82%
    10:00 -7°C° 0.4 mm 4 m/S 475 mmHg 81%
    11:00 -5°C° 0.4 mm 4 m/S 475 mmHg 80%
    12:00 -5°C° 0.6 mm 4 m/S 475 mmHg 81%
    13:00 -5°C° 0.6 mm 4 m/S 474 mmHg 82%
    14:00 -5°C° 0.6 mm 4 m/S 474 mmHg 83%
    15:00 -7°C° 0.8 mm 4 m/S 474 mmHg 85%
    16:00 -7°C° 0.8 mm 4 m/S 474 mmHg 87%
    17:00 -8°C° 0.8 mm 4 m/S 474 mmHg 89%
    18:00 -7°C° 0.7 mm 3 m/S 474 mmHg 90%
    19:00 -8°C° 0.7 mm 3 m/S 473 mmHg 90%
    20:00 -7°C° 0.7 mm 2 m/S 473 mmHg 90%
    21:00 -9°C° 0.1 mm 3 m/S 473 mmHg 89%
    22:00 -10°C° 0.1 mm 3 m/S 472 mmHg 87%
    23:00 -12°C° 0.1 mm 3 m/S 472 mmHg 86%

    Morgen, 17 Oktober, Mittwoch

    Zeit Temperatur Niederschläge Wind Luftdruck Luftfeuchtigkeit
    00:00 -13°C° 0 mm 3 m/S 472 mmHg 83%
    01:00 -14°C° 0 mm 3 m/S 471 mmHg 80%
    02:00 -14°C° 0 mm 3 m/S 471 mmHg 77%
    03:00 -14°C° 0 mm 3 m/S 471 mmHg 75%
    04:00 -14°C° 0 mm 3 m/S 471 mmHg 72%
    05:00 -14°C° 0 mm 3 m/S 471 mmHg 70%
    06:00 -13°C° 0 mm 3 m/S 472 mmHg 69%
    07:00 -10°C° 0 mm 2 m/S 472 mmHg 68%
    08:00 -9°C° 0 mm 2 m/S 473 mmHg 68%
    09:00 -8°C° 0 mm 2 m/S 474 mmHg 66%
    10:00 -7°C° 0 mm 2 m/S 475 mmHg 64%
    11:00 -6°C° 0 mm 3 m/S 476 mmHg 61%
    12:00 -6°C° 0 mm 3 m/S 476 mmHg 62%
    13:00 -5°C° 0 mm 3 m/S 476 mmHg 63%
    14:00 -5°C° 0 mm 3 m/S 476 mmHg 64%
    15:00 -5°C° 0 mm 2 m/S 475 mmHg 67%
    16:00 -6°C° 0 mm 2 m/S 474 mmHg 69%
    17:00 -7°C° 0 mm 2 m/S 474 mmHg 72%
    18:00 -8°C° 0 mm 2 m/S 473 mmHg 74%
    19:00 -9°C° 0 mm 2 m/S 472 mmHg 76%
    20:00 -9°C° 0 mm 1 m/S 472 mmHg 77%
    21:00 -12°C° 0 mm 2 m/S 472 mmHg 75%
    22:00 -12°C° 0 mm 2 m/S 471 mmHg 73%
    23:00 -12°C° 0 mm 2 m/S 471 mmHg 70%

    übermorgen, 18 Oktober, Donnerstag

    Zeit Temperatur Niederschläge Wind Luftdruck Luftfeuchtigkeit
    00:00 -12°C° 0 mm 2 m/S 471 mmHg 68%
    01:00 -12°C° 0 mm 2 m/S 471 mmHg 65%
    02:00 -12°C° 0 mm 2 m/S 471 mmHg 63%
    03:00 -12°C° 0 mm 2 m/S 470 mmHg 61%
    04:00 -13°C° 0 mm 2 m/S 470 mmHg 59%
    05:00 -13°C° 0 mm 2 m/S 470 mmHg 58%
    06:00 -12°C° 0 mm 2 m/S 471 mmHg 57%
    07:00 -10°C° 0 mm 2 m/S 472 mmHg 57%
    08:00 -9°C° 0 mm 2 m/S 472 mmHg 57%
    09:00 -7°C° 0 mm 2 m/S 474 mmHg 55%
    10:00 -5°C° 0 mm 2 m/S 475 mmHg 53%
    11:00 -4°C° 0 mm 2 m/S 476 mmHg 52%
    12:00 -3°C° 0 mm 2 m/S 476 mmHg 53%
    13:00 -3°C° 0 mm 2 m/S 476 mmHg 55%
    14:00 -3°C° 0 mm 2 m/S 476 mmHg 56%
    15:00 -4°C° 0.1 mm 2 m/S 475 mmHg 59%
    16:00 -5°C° 0.1 mm 2 m/S 474 mmHg 62%
    17:00 -4°C° 0.1 mm 1 m/S 474 mmHg 65%
    18:00 -6°C° 0 mm 1 m/S 473 mmHg 66%
    19:00 -7°C° 0 mm 1 m/S 472 mmHg 67%
    20:00 -9°C° 0 mm 2 m/S 472 mmHg 68%
    21:00 -9°C° 0 mm 2 m/S 472 mmHg 67%
    22:00 -9°C° 0 mm 2 m/S 472 mmHg 66%
    23:00 -10°C° 0 mm 2 m/S 472 mmHg 65%

    19 Oktober, Freitag

    Zeit Temperatur Niederschläge Wind Luftdruck Luftfeuchtigkeit
    00:00 -10°C° 0 mm 2 m/S 472 mmHg 64%
    01:00 -10°C° 0 mm 2 m/S 471 mmHg 64%
    02:00 -10°C° 0 mm 2 m/S 471 mmHg 63%
    03:00 -10°C° 0 mm 2 m/S 471 mmHg 63%
    04:00 -10°C° 0 mm 2 m/S 471 mmHg 63%
    05:00 -10°C° 0 mm 2 m/S 471 mmHg 63%
    06:00 -10°C° 0 mm 2 m/S 472 mmHg 62%
    07:00 -8°C° 0 mm 1 m/S 473 mmHg 61%
    08:00 -7°C° 0 mm 1 m/S 473 mmHg 61%
    09:00 -6°C° 0 mm 1 m/S 474 mmHg 57%
    10:00 -3°C° 0 mm 1 m/S 475 mmHg 53%
    11:00 -2°C° 0 mm 1 m/S 476 mmHg 50%
    12:00 -2°C° 0.1 mm 1 m/S 476 mmHg 50%
    13:00 -4°C° 0.1 mm 2 m/S 476 mmHg 51%
    14:00 -3°C° 0.1 mm 2 m/S 476 mmHg 52%
    15:00 -2°C° 0.1 mm 1 m/S 475 mmHg 56%
    16:00 -3°C° 0.1 mm 1 m/S 475 mmHg 60%
    17:00 -4°C° 0.1 mm 1 m/S 474 mmHg 64%
    18:00 -6°C° 0 mm 1 m/S 474 mmHg 65%
    19:00 -7°C° 0 mm 1 m/S 473 mmHg 66%
    20:00 -8°C° 0 mm 1 m/S 473 mmHg 68%
    21:00 -8°C° 0 mm 1 m/S 473 mmHg 66%
    22:00 -9°C° 0 mm 2 m/S 473 mmHg 64%
    23:00 -9°C° 0 mm 2 m/S 473 mmHg 63%

    20 Oktober, Samstag

    Zeit Temperatur Niederschläge Wind Luftdruck Luftfeuchtigkeit
    00:00 -10°C° 0 mm 2 m/S 473 mmHg 62%
    01:00 -10°C° 0 mm 2 m/S 473 mmHg 61%
    02:00 -10°C° 0 mm 2 m/S 472 mmHg 60%
    03:00 -10°C° 0 mm 2 m/S 472 mmHg 60%
    04:00 -10°C° 0 mm 2 m/S 472 mmHg 60%
    05:00 -10°C° 0 mm 2 m/S 472 mmHg 59%
    06:00 -9°C° 0 mm 2 m/S 473 mmHg 58%
    07:00 -9°C° 0 mm 2 m/S 474 mmHg 57%
    08:00 -8°C° 0 mm 2 m/S 475 mmHg 56%
    09:00 -6°C° 0 mm 2 m/S 476 mmHg 53%
    10:00 -5°C° 0 mm 2 m/S 477 mmHg 49%
    11:00 -3°C° 0 mm 2 m/S 478 mmHg 46%
    12:00 -3°C° 0 mm 2 m/S 478 mmHg 47%
    13:00 -3°C° 0 mm 2 m/S 477 mmHg 49%
    14:00 -2°C° 0 mm 2 m/S 477 mmHg 50%
    15:00 -3°C° 0.1 mm 2 m/S 477 mmHg 53%
    16:00 -2°C° 0.1 mm 1 m/S 476 mmHg 57%
    17:00 -3°C° 0.1 mm 1 m/S 475 mmHg 60%
    18:00 -4°C° 0 mm 1 m/S 475 mmHg 62%
    19:00 -6°C° 0 mm 1 m/S 474 mmHg 63%
    20:00 -7°C° 0 mm 1 m/S 474 mmHg 65%
    21:00 -8°C° 0 mm 1 m/S 474 mmHg 63%
    22:00 -9°C° 0 mm 2 m/S 474 mmHg 62%
    23:00 -9°C° 0 mm 2 m/S 474 mmHg 61%

    21 Oktober, Sonntag

    Zeit Temperatur Niederschläge Wind Luftdruck Luftfeuchtigkeit
    00:00 -9°C° 0 mm 2 m/S 473 mmHg 59%
    01:00 -9°C° 0 mm 2 m/S 473 mmHg 58%
    02:00 -10°C° 0 mm 2 m/S 473 mmHg 56%
    03:00 -10°C° 0 mm 2 m/S 473 mmHg 54%
    04:00 -10°C° 0 mm 2 m/S 473 mmHg 51%
    05:00 -10°C° 0 mm 2 m/S 472 mmHg 49%
    06:00 -9°C° 0 mm 2 m/S 473 mmHg 47%
    07:00 -9°C° 0 mm 2 m/S 474 mmHg 46%
    08:00 -8°C° 0 mm 2 m/S 475 mmHg 44%
    09:00 -4°C° 0 mm 1 m/S 475 mmHg 39%
    10:00 -3°C° 0 mm 1 m/S 476 mmHg 34%
    11:00 -2°C° 0 mm 1 m/S 477 mmHg 30%
    12:00 -1°C° 0 mm 1 m/S 477 mmHg 33%
    13:00 -1°C° 0 mm 1 m/S 477 mmHg 36%
    14:00 0°C° 0 mm 1 m/S 477 mmHg 39%
    15:00 -1°C° 0 mm 1 m/S 476 mmHg 43%
    16:00 -3°C° 0 mm 1 m/S 476 mmHg 46%
    17:00 -4°C° 0 mm 1 m/S 475 mmHg 50%
    18:00 -6°C° 0 mm 1 m/S 474 mmHg 50%
    19:00 -7°C° 0 mm 1 m/S 474 mmHg 49%
    20:00 -9°C° 0 mm 2 m/S 474 mmHg 48%
    21:00 -9°C° 0 mm 2 m/S 474 mmHg 47%
    22:00 -9°C° 0 mm 2 m/S 474 mmHg 46%
    23:00 -9°C° 0 mm 2 m/S 474 mmHg 45%
    Mehr zeigen